Home   Weather   United Kingdom   Worthing   Past weeks
Flag for United Kingdom

Past Weather in Worthing, England, United Kingdom — Yesterday and Last 2 Weeks

Currently: 36 °F. Clear. (Weather station: London / Gatwick Airport, United Kingdom). See more current weather

Past Weather in Worthing — Graph

°F

Worthing Temperature Yesterday

Maximum temperature yesterday: 45 °F (at 12:20 am)
Minimum temperature yesterday: 39 °F (at 11:20 pm)
Average temperature yesterday: 42 °F

High & Low Weather Summary for the Past Weeks

 TemperatureHumidityPressure
High73 °F (Mar 30, 3:50 pm)100% (Mar 30, 3:20 am)30.48 "Hg (Mar 30, 3:20 am)
Low27 °F (Apr 7, 3:50 am)21% (Apr 5, 5:50 pm)29.86 "Hg (Apr 9, 4:50 pm)
Average46 °F68%30.19 "Hg
* Reported Mar 27 3:20 am — Apr 11 4:50 am, Worthing. Weather by CustomWeather, © 2021

Note: Actual official high and low records may vary slightly from our data, if they occured in-between our weather recording intervals... More about our weather records

Worthing Weather History for the Previous 24 Hours

Scroll right to see more
 ConditionsComfort  
Time TempWeatherWind HumidityBarometerVisibility
4:50 am
Sun, Apr 11
36 °FClear.8 mph75%29.95 "Hg10 mi
4:20 am34 °FClear.7 mph81%29.95 "Hg10 mi
3:50 am36 °FClear.7 mph75%29.95 "Hg10 mi
3:20 am36 °FClear.8 mph75%29.95 "Hg10 mi
2:50 am36 °FClear.8 mph75%29.95 "Hg10 mi
2:20 am37 °FPassing clouds.9 mph70%29.95 "HgN/A
1:50 am37 °FClear.12 mph75%29.95 "Hg10 mi
1:20 am39 °FClear.10 mph70%29.95 "Hg10 mi
12:50 am39 °FClear.10 mph70%29.95 "Hg10 mi
12:20 am39 °FPassing clouds.9 mph70%29.95 "HgN/A
11:50 pm
Sat, Apr 10
39 °FPassing clouds.9 mph70%29.95 "HgN/A
11:20 pm39 °FClear.8 mph70%29.92 "Hg10 mi
10:50 pm41 °FPassing clouds.8 mph66%29.92 "HgN/A
10:20 pm41 °FPassing clouds.9 mph70%29.92 "HgN/A
9:50 pm41 °FPassing clouds.10 mph70%29.92 "HgN/A
8:50 pm41 °FPassing clouds.10 mph70%29.92 "HgN/A
8:20 pm41 °FPassing clouds.8 mph76%29.89 "HgN/A
7:50 pm41 °FPassing clouds.10 mph81%29.89 "HgN/A
7:20 pm41 °FPartly sunny.14 mph81%29.89 "HgN/A
6:50 pm41 °FLight rain. Partly sunny.16 mph81%29.89 "HgN/A
6:20 pm43 °FLight rain. Partly sunny.14 mph76%29.89 "HgN/A
5:50 pm43 °FPartly sunny.14 mph76%29.89 "HgN/A
5:20 pm43 °FPartly sunny.14 mph76%29.86 "HgN/A
4:50 pm43 °FPartly sunny.17 mph76%29.86 "HgN/A
4:20 pm43 °FPartly sunny.15 mph81%29.86 "HgN/A
3:50 pm43 °FPartly sunny.16 mph81%29.86 "HgN/A
3:20 pm43 °FLight rain. Partly sunny.16 mph76%29.89 "HgN/A
2:50 pm45 °FPartly sunny.13 mph76%29.89 "HgN/A
2:20 pm45 °FPartly sunny.15 mph76%29.89 "HgN/A
1:50 pm43 °FPartly sunny.14 mph87%29.89 "HgN/A
1:20 pm43 °FPartly sunny.16 mph87%29.89 "HgN/A
12:50 pm43 °FPartly sunny.14 mph87%29.89 "HgN/A
12:20 pm43 °FPartly sunny.13 mph87%29.89 "HgN/A
11:50 am43 °FPartly sunny.12 mph93%29.89 "Hg4 mi
11:20 am45 °FPartly sunny.12 mph81%29.89 "HgN/A
10:50 am45 °FPartly sunny.12 mph81%29.89 "HgN/A
10:20 am45 °FPartly sunny.12 mph81%29.89 "HgN/A
9:50 am43 °FPartly sunny.13 mph87%29.89 "HgN/A
9:20 am43 °FPartly sunny.10 mph87%29.89 "HgN/A
8:50 am43 °FPartly sunny.9 mph87%29.89 "HgN/A
8:20 am43 °FPartly sunny.7 mph87%29.92 "HgN/A
7:50 am43 °FPartly sunny.7 mph87%29.92 "HgN/A
7:20 am41 °FScattered clouds.7 mph93%29.92 "HgN/A
6:50 am41 °FScattered clouds.6 mph87%29.89 "HgN/A
6:20 am41 °FSunny.8 mph87%29.89 "Hg10 mi
Weather by CustomWeather, © 2021

See weather overview